Regional Weather Roundup
Issued by NWS Grand Forks, ND

Home | Current Version | Previous Version | Graphics & Text | Print | Product List | Glossary On
Versions: 1 2 3 4 5 6 7 8 9 10 11 12 13 14 15 16 17 18 19 20 21 22 23 24 25 26 27 28 29 30 31 32 33 34 35 36 37 38 39 40 41 42 43 44 45 46 47 48 49 50
000
ASUS43 KFGF 291610
RWRFGF
PRAIRIE TO PINES  WEATHER ROUNDUP
NATIONAL WEATHER SERVICE EASTERN NORTH DAKOTA/GRAND FORKS ND
1100 AM CDT MON MAY 29 2017

 **SATELLITE DATA USED TO AUGMENT SKY COVER AT AUTOMATED STATIONS**
 *****  WEATHER ACROSS EASTERN NORTH DAKOTA  *****

CITY           SKY/WX    TMP DP  RH WIND       PRES   REMARKS
GRAND FORKS    CLOUDY    56  51  84 NW17      29.86S
GRAND FRKS AFB CLOUDY    54  50  87 NW15G21   29.87S
DEVILS LAKE    CLOUDY    55  46  71 NW15G23   29.91F
FARGO          LGT RAIN  53  51  93 N14       29.88R FOG
WAHPETON ARPT  CLOUDY    54  46  76 NW18G24   29.88S
$$

 ***** WEATHER ACROSS CENTRAL AND WESTERN NORTH DAKOTA  *****

CITY           SKY/WX    TMP DP  RH WIND       PRES   REMARKS
BISMARCK       PTSUNNY   60  41  49 NW23G32   30.03F
MINOT          CLOUDY    57  40  52 NW21G35   30.01F
JAMESTOWN      CLOUDY    53  47  79 NW23      29.94S
MINOT AFB      CLOUDY    56  41  57 NW22G31   30.00S
GARRISON         N/A     57  41  55 NW28G37   30.03F
WILLISTON      PTSUNNY   61  41  47 NW20G25   30.13F
DICKINSON      PTSUNNY   55  35  47 NW23G29   30.09F
HETTINGER      PTSUNNY   58  37  45 NW21G32   30.12F
$$

 *****  OTHER AIRPORT OBSERVATIONS IN OUR AREA  *****

CITY           SKY/WX    TMP DP  RH WIND       PRES   REMARKS
WALHALLA       NOT AVBL
GRAFTON AIRPOR CLOUDY    54  52  94 NW15      29.87F
VALLEY CITY AR CLOUDY    54  50  87 N17G26    29.94R
CANDO          NOT AVBL
CAVALIER APRT  CLOUDY    54  48  82 NW21G28   29.85S
GWINNER        PTSUNNY   52  52 100 MISG      29.93R FOG
SHEYENNE NWR     N/A     55  48  77 N10       29.95S
ROLLA          PTSUNNY   50  46  87 N18G24    29.93S
 ***** THE ABOVE OBSERVATIONS ARE NON NWS ARE NOT QUALITY
       CONTROLLED AND MAY MIS-REPORT RAIN FOR SNOW...
$$

  *****  WEATHER ACROSS NORTHERN MINNESOTA  *****

CITY           SKY/WX    TMP DP  RH WIND       PRES   REMARKS
FLAG ISLAND    CLOUDY    48  43  81 NW23G31   29.73S
WARROAD        CLOUDY    52  45  76 NW17G23   29.77S
ROSEAU         PTSUNNY   52  45  76 N17       29.79S
HALLOCK        CLOUDY    52  48  87 N15       29.84S
THF RVR FALLS  CLOUDY    50  43  77 NW23      29.83S
BAUDETTE       CLOUDY    50  46  86 NW17G25   29.74R
WASKISH        CLOUDY    52  46  82 NW12G18   29.75S
CROOKSTON      CLOUDY    52  46  82 N18G24    29.86R
STEPHEN NDAWN    N/A     52  46  82 NW12        N/A
GREENBUSH NDAW   N/A     52  46  82 NW14        N/A
$$
  *****  WEATHER ACROSS CENTRAL AND WEST MINNESOTA  *****

CITY           SKY/WX    TMP DP  RH WIND       PRES   REMARKS
FOSSTON        CLOUDY    46  43  87 NW17G23   29.82R
BEMIDJI        CLOUDY    51  46  81 NW15      29.77S
PARK RAPIDS    PTSUNNY   56  45  66 NW18G25   29.78F
ELBOW LAKE     CLOUDY    52  48  86 W17G29    29.87R
WADENA         PTSUNNY   54  46  76 NW17      29.81S
DETROIT LAKES  CLOUDY    50  46  87 NW22      29.85S
MOORHEAD       LGT RAIN  52  48  87 N15G24    29.89R
FERGUS FALLS   CLOUDY    54  52  94 N23       29.85S
MORRIS MN      PTSUNNY   55  50  82 NW24G30   29.87R
STAPLES        CLOUDY    54  45  71 NW16      29.81R
$$
  *****  WEATHER ELSEWHERE ACROSS MINNESOTA  *****

CITY           SKY/WX    TMP DP  RH WIND       PRES   REMARKS
DULUTH         CLOUDY    54  48  80 W16       29.68R
INTRNTL FALLS  CLOUDY    51  48  89 W12       29.69R
ELY            CLOUDY    52  48  87 W13       29.64R
CLOQUET        CLOUDY    55  45  67 NW14      29.70S
WHEATON        PTSUNNY   55  46  71 NW17G23   29.91S
BRAINERD       CLOUDY    54  47  77 NW18G25   29.78R
HIBBING        CLOUDY    50  48  93 W14       29.69R
ALEXANDRIA     CLOUDY    55  47  74 NW16G22   29.85R
SAINT CLOUD    CLOUDY    56  48  74 W16G22    29.80R
MINNEAPOLIS    CLOUDY    59  48  67 NW15G21   29.81R
$$

  *****  WEATHER ACROSS SOUTH DAKOTA  *****

CITY           SKY/WX    TMP DP  RH WIND       PRES   REMARKS
SIOUX FALLS    CLOUDY    59  47  64 NW18G30   29.97S
BROOKINGS      CLOUDY    54  48  80 NW16G23   29.95R
WATERTOWN      CLOUDY    53  47  79 NW14      29.94R
HURON          CLOUDY    57  44  62 NW21G30   30.00R
SISSETON         N/A     57  50  77 NW23      29.90S
ABERDEEN       CLOUDY    58  41  53 NW26G32   29.97R
MITCHELL       CLOUDY    62  43  49 NW25G31   30.02R
PIERRE         FAIR      61  40  45 NW21G32   30.07R
MOBRIDGE       PTSUNNY   60  41  49 N20G25    30.02S
RAPID CITY     FAIR      61  36  39 N20       30.16F
$$

  *****  SOME WEATHER IN NEARBY STATES *****

CITY           SKY/WX    TMP DP  RH WIND       PRES   REMARKS
GLASGOW MT     FAIR      59  36  42 NW10G20   30.21F
GREAT FALLS MT FAIR      61  47  59 VRB3      30.23S
CHEYENNE WY    FAIR      58  36  43 MISG      30.28F
SCOTTSBLUFF NE FAIR      66  42  41 W10       30.20F
OMAHA NE       FAIR      72  46  39 NW16      29.99S
DES MOINES IA  FAIR      71  44  37 NW13      29.94R
DAVENPORT IA   FAIR      68  46  45 NW15G23   29.89R
CHICAGO IL     FAIR      72  46  39 W17G26    29.81S
EAU CLAIRE WI  CLOUDY    57  48  72 W13       29.76R
LA CROSSE WI   CLOUDY    62  49  62 W15       29.81R
$$

  *****  SOME NATIONAL WEATHER *****

CITY           SKY/WX    TMP DP  RH WIND       PRES   REMARKS
LA GUARDIA NY  LGT RAIN  57  53  86 NE14      29.95R FOG
RALEIGH NC     FAIR      84  65  52 VRB5      29.96R
ATLANTA GA     PTSUNNY   81  66  60 W7        30.05R
NEW ORLEANS LA CLOUDY    75  69  81 SE9       30.03S
OKLAHOMA CITY  PTSUNNY   80  48  32 W9        30.08S
ALBUQUERQUE NM FAIR      69  36  29 NW6       30.23S
SALT LAKE CITY FAIR      70  38  31 NW5       30.15F
LOS ANGELES CA CLOUDY    60  56  86 W7        29.93S
BOISE ID       FAIR      73  44  35 SE9       30.12S
SEATTLE WA     CLOUDY    52  50  93 W3        30.07F FOG
$$

*** WEATHER ACROSS MANITOBA...SASKATCHEWAN AND ONTARIO ***
                ***ONTARIO***

CITY           SKY/WX    TMP DP  RH WIND       PRES   REMARKS
GERALDTON      PTSUNNY   61  50  67 SW7       29.52S
THUNDER BAY    LGT RAIN  54  52  94 W5        29.55S
SIOUX LOOKOUT  CLOUDY    54  52  94 NW7       29.59S
TORONTO        PTSUNNY   75  61  60 W16G24    29.75R
BIG TROUT LK   LGT RAIN  50  48  93 N10G17    29.57S
PICKLE LAKE    LGT RAIN  54  52  94 N3        29.55S
DRYDEN         CLOUDY    52  50  93 NW8       29.63S
KENORA         CLOUDY    48  43  81 NW14G21   29.71S
$$
                *** MANITOBA***

CITY           SKY/WX    TMP DP  RH WIND       PRES   REMARKS
BRANDON        LGT RAIN  50  46  87 NW13      29.93S
DAUPHIN        CLOUDY    48  43  81 N20G25    29.93S
ISLAND LAKE    NOT AVBL
PILOT MOUND      N/A     52  46  82 NW17G23     N/A
THE PAS        LGT RAIN  43  37  81 N18G25    30.01S
THOMPSON       CLOUDY    39  37  93 N9G20     29.90F
WINNIPEG       CLOUDY    50  43  76 NW21G28   29.84S
LYNN LAKE      LGT RAIN  41  39  93 N15G23    30.07R
CHURCHILL      CLOUDY    36  34  93 N17G23    29.92F
GILLAM         CLOUDY    39  36  87 N10       29.83S
$$
                ***SASKATCHEWAN***

CITY           SKY/WX    TMP DP  RH WIND       PRES   REMARKS
ESTEVAN        PTSUNNY   55  41  58 NW22G29   30.07F
KINDERSLEY     MOSUNNY   57  32  38 NW5       30.23F
LLOYDMINSTER   MOSUNNY   57  34  41 NW3       30.24S
PRINCE ALBERT  MOSUNNY   59  37  44 NW12G23   30.14F
REGINA         MOSUNNY   57  37  47 N22G29    30.13F
YORKTON          N/A     57  43  58 NW23G36   30.01F
N. BATTLEFORD  SUNNY     59  30  33 NW14G20   30.23F
LA RONGE       PTSUNNY   52  36  54 N12G20    30.17S
SASKATOON      MOSUNNY   59  30  33 NW17G26   30.19F
SWIFT CURRENT  SUNNY     57  32  38 N14G20    30.21F
$$
NOTE: THESE ARE AUTOMATED STATIONS WITH LIMITED QUALITY CONTROL
      "FAIR" INDICATES FEW OR NO CLOUDS BELOW 12,000 FEET WITH NO
      SIGNIFICANT WEATHER AND/OR OBSTRUCTIONS TO VISIBILITY.
      SKY/WX - SKY CONDITION AND SIGNIFICANT WEATHER.
      TMP - AIR TEMPERATURE.    DP   - DEWPOINT TEMPERATURE.
      RH  - RELATIVE HUMIDITY.  PRES - PRESSURE.
      HX  - HEAT INDEX.         WCI  - WIND CHILL INDEX.
$




USA.gov is the U.S. government's official web portal to all federal, state and local government web resources and services.